Alexandria, LA

2:25 AM CST on January 19, 2018 (GMT -0600)
Alexandria International

Weather History for KAEX - February, 2007

Change the Weather History Date:

Thursday, February 22, 2007

  Actual Average Record
Temperature  
Mean Temperature 65 °F 54 °F  
Max Temperature 80 °F 65 °F 82 °F (1993)
Min Temperature 49 °F 43 °F 21 °F (1968)
Degree Days  
Heating Degree Days 0 12  
Month to date heating degree days 384 308  
Since 1 July heating degree days 1596 1599  
Growing Degree Days 13 (Base 50)    
Moisture  
Dew Point 50 °F    
Average Humidity 75    
Maximum Humidity 100    
Minimum Humidity 28    
Precipitation  
Precipitation 0.00 in 0.16 in 2.40 in (1969)
Month to date precipitation 1.12 3.51  
Year to date precipitation 8.11 8.73  
Snow  
Snow 0.00 in - 0.00 in ()
Month to date snowfall 0.0  
Since 1 July snowfall 0.0  
Snow Depth 0.00 in    
Sea Level Pressure  
Sea Level Pressure 30.14 in    
Wind  
Wind Speed 2 mph (SE)    
Max Wind Speed 7 mph    
Max Gust Speed -    
Visibility 5 miles    
Events Fog    
T = Trace of Precipitation, MM = Missing Value Source: NWS Daily Summary

Daily Weather History Graph

Daily Weather History Graph

Search for Another Location

Airport or City:

Trip Planner

Search our weather history database for the weather conditions in past years. The results will help you decide how hot, cold, wet, or windy it might be!

Date:

Astronomy

Feb. 22, 2007 Rise Set
Actual Time 6:44 AM CST 6:02 PM CST
Civil Twilight 6:20 AM CST 6:27 PM CST
Nautical Twilight 5:52 AM CST 6:55 PM CST
Astronomical Twilight 5:24 AM CST 7:23 PM CST
Moon 9:44 AM CST (2/22) No Moon Set
Length of Visible Light 12h 07m
Length of Day
11h 17m
Waxing Crescent, 32% of the Moon is Illuminated
Feb 22
Waxing Crescent
Feb 24
First Quarter
Mar 3
Full
Mar 11
Last Quarter
Mar 18
New

Hourly Weather History & Observations

Time (CST) Temp. Dew Point Humidity Pressure Visibility Wind Dir Wind Speed Gust Speed Precip Events Conditions
12:53 AM 57.9 °F 54.0 °F 87% 30.12 in 10.0 mi South 3.5 mph - N/A   Partly Cloudy
1:53 AM 53.1 °F 50.0 °F 89% 30.14 in 10.0 mi Calm Calm - N/A   Clear
2:53 AM 52.0 °F 48.9 °F 89% 30.13 in 4.0 mi Calm Calm - N/A   Clear
3:01 AM 51.8 °F 48.2 °F 88% 30.12 in 1.5 mi Calm Calm - N/A   Clear
3:09 AM 51.8 °F 48.2 °F 88% 30.11 in 1.0 mi Calm Calm - N/A   Mist
3:23 AM 50.0 °F 48.2 °F 94% 30.11 in 0.8 mi Calm Calm - N/A   Mist
3:28 AM 51.8 °F 48.2 °F 88% 30.11 in 1.5 mi Calm Calm - N/A   Scattered Clouds
3:30 AM 51.8 °F 48.2 °F 88% 30.11 in 4.0 mi Calm Calm - N/A   Scattered Clouds
3:46 AM 51.8 °F 48.2 °F 88% 30.11 in 2.5 mi Calm Calm - N/A   Mostly Cloudy
3:53 AM 51.1 °F 48.9 °F 92% 30.12 in 3.0 mi Calm Calm - N/A   Mostly Cloudy
4:24 AM 48.2 °F 46.4 °F 93% 30.11 in 0.8 mi Calm Calm - N/A   Mostly Cloudy
4:40 AM 51.8 °F 48.2 °F 88% 30.12 in 0.2 mi Calm Calm - N/A Fog Fog
4:50 AM 51.8 °F 48.2 °F 88% 30.12 in 0.8 mi Calm Calm - N/A   Overcast
4:53 AM 52.0 °F 50.0 °F 93% 30.13 in 0.5 mi Calm Calm - N/A Fog Fog
5:02 AM 51.8 °F 51.8 °F 100% 30.12 in 0.2 mi Calm Calm - N/A Fog Fog
5:53 AM 55.9 °F 54.0 °F 93% 30.14 in 0.2 mi Calm Calm - N/A Fog Fog
6:53 AM 55.0 °F 54.0 °F 96% 30.17 in 0.2 mi Calm Calm - N/A Fog Fog
7:53 AM 55.9 °F 55.0 °F 97% 30.19 in 0.2 mi SW 3.5 mph - 0.01 in Fog Fog
8:53 AM 57.0 °F 55.9 °F 96% 30.21 in 0.2 mi Variable 3.5 mph - N/A Fog Fog
9:28 AM 57.2 °F 57.2 °F 100% 30.21 in 0.5 mi NNW 4.6 mph - N/A Fog Fog
9:53 AM 59.0 °F 57.0 °F 93% 30.22 in 1.0 mi North 5.8 mph - N/A   Overcast
10:22 AM 59.0 °F 57.2 °F 94% 30.22 in 1.0 mi NW 5.8 mph - N/A   Overcast
10:53 AM 62.1 °F 57.0 °F 84% 30.23 in 4.0 mi Variable 3.5 mph - N/A   Haze
11:04 AM 62.6 °F 55.4 °F 77% 30.21 in 9.0 mi WNW 4.6 mph - N/A   Scattered Clouds
11:53 AM 69.1 °F 55.0 °F 61% 30.20 in 10.0 mi Variable 4.6 mph - N/A   Clear
12:53 PM 71.1 °F 54.0 °F 55% 30.17 in 10.0 mi SSE 6.9 mph - N/A   Clear
1:53 PM 75.9 °F 52.0 °F 43% 30.13 in 10.0 mi SE 4.6 mph - N/A   Clear
2:53 PM 77.0 °F 48.9 °F 37% 30.11 in 10.0 mi Variable 3.5 mph - N/A   Clear
3:53 PM 78.1 °F 42.1 °F 28% 30.10 in 10.0 mi Calm Calm - N/A   Clear
4:53 PM 75.0 °F 46.0 °F 36% 30.10 in 10.0 mi SSE 6.9 mph - N/A   Clear
5:53 PM 71.1 °F 44.1 °F 38% 30.11 in 10.0 mi SSE 5.8 mph - N/A   Partly Cloudy
6:53 PM 71.1 °F 39.0 °F 31% 30.12 in 10.0 mi South 5.8 mph - N/A   Clear
7:53 PM 62.1 °F 48.0 °F 60% 30.13 in 10.0 mi Calm Calm - N/A   Clear
8:53 PM 59.0 °F 46.9 °F 64% 30.14 in 10.0 mi NNE 5.8 mph - N/A   Partly Cloudy
9:53 PM 63.0 °F 42.1 °F 46% 30.16 in 10.0 mi ENE 5.8 mph - N/A   Clear
10:53 PM 63.0 °F 39.9 °F 43% 30.15 in 10.0 mi ENE 3.5 mph - N/A   Clear
11:53 PM 57.0 °F 45.0 °F 64% 30.14 in 10.0 mi Calm Calm - N/A   Clear